Location: Cheching
(60.0667°N, 164.2167°W)
Time: 00:57:59
(UTC+00:00)

O/OREOS (USA 219) - Pass Details

Date: 17 January 2021
Orbit: 621 x 646 km, 72.0° (Epoch: 22 May)

Event Time Altitude Azimuth Distance (km) Brightness Sun altitude
Rises 03:24:09 0° 322° (NW) 2,968 ? -6.0°
Reaches altitude 10° 03:26:27 10° 322° (NW) 2,051 ? -6.2°
Maximum altitude 03:31:04 85° 234° (SW) 651 ? -6.7°
Drops below altitude 10° 03:35:38 10° 147° (SSE) 2,024 ? -7.2°
Sets 03:37:53 0° 147° (SSE) 2,925 ? -7.4°
